| time (UTC) | temp F | wind direction | speed MPH | gust MPH | rain 1hr in | rain 24hr in | rain mn in | humidity % | barometer mb |
| 20260506231004 | 66 | 215 | 1.0 | 3.0 | 0.00 | 0.28 | 0.26 | 81 | 1009.6 |
| 20260506230504 | 66 | 197 | 1.0 | 5.0 | 0.00 | 0.28 | 0.26 | 81 | 1009.7 |
| 20260506230004 | 66 | 171 | 1.0 | 3.0 | 0.00 | 0.28 | 0.26 | 81 | 1009.7 |
| 20260506225504 | 66 | 228 | 1.0 | 3.0 | 0.00 | 0.28 | 0.26 | 81 | 1009.7 |
| 20260506224504 | 66 | 343 | 0.0 | 3.0 | 0.00 | 0.28 | 0.26 | 81 | 1009.5 |
| 20260506224004 | 66 | 111 | 1.0 | 5.0 | 0.00 | 0.28 | 0.26 | 80 | 1009.5 |
| 20260506223004 | 67 | 199 | 1.0 | 3.0 | 0.00 | 0.28 | 0.26 | 80 | 1009.5 |
| 20260506222504 | 66 | 111 | 1.0 | 3.0 | 0.00 | 0.28 | 0.26 | 80 | 1009.5 |
| 20260506222004 | 66 | 194 | 2.0 | 6.0 | 0.00 | 0.28 | 0.26 | 80 | 1009.5 |
| 20260506221504 | 67 | 135 | 2.0 | 6.0 | 0.00 | 0.28 | 0.26 | 80 | 1009.4 |
| 20260506221004 | 67 | 217 | 1.0 | 3.0 | 0.00 | 0.28 | 0.26 | 80 | 1009.3 |
| 20260506220505 | 67 | 176 | 1.0 | 5.0 | 0.00 | 0.28 | 0.26 | 80 | 1009.4 |
| 20260506220005 | 66 | 13 | 1.0 | 3.0 | 0.00 | 0.28 | 0.26 | 81 | 1009.5 |
| 20260506215504 | 67 | 283 | 3.0 | 6.0 | 0.00 | 0.28 | 0.26 | 81 | 1009.5 |
| 20260506215005 | 67 | 279 | 2.0 | 6.0 | 0.00 | 0.28 | 0.26 | 80 | 1009.4 |
| 20260506214503 | 67 | 36 | 1.0 | 5.0 | 0.00 | 0.28 | 0.26 | 80 | 1009.4 |
| 20260506214004 | 67 | 45 | 1.0 | 5.0 | 0.00 | 0.28 | 0.26 | 80 | 1009.2 |
| 20260506213505 | 67 | 251 | 1.0 | 5.0 | 0.00 | 0.28 | 0.26 | 80 | 1009.2 |
| 20260506212504 | 67 | 215 | 3.0 | 7.0 | 0.00 | 0.28 | 0.26 | 80 | 1009.1 |
| 20260506211504 | 66 | 259 | 2.0 | 5.0 | 0.00 | 0.28 | 0.26 | 80 | 1009.1 |
| 20260506211004 | 66 | 336 | 1.0 | 6.0 | 0.00 | 0.28 | 0.26 | 82 | 1009.1 |
| 20260506210504 | 65 | 191 | 2.0 | 7.0 | 0.00 | 0.28 | 0.26 | 83 | 1009.0 |
| 20260506210004 | 65 | 172 | 2.0 | 6.0 | 0.00 | 0.28 | 0.26 | 82 | 1009.0 |
| 20260506205504 | 65 | 226 | 1.0 | 5.0 | 0.00 | 0.28 | 0.26 | 84 | 1009.1 |
| 20260506205004 | 65 | 196 | 2.0 | 7.0 | 0.00 | 0.28 | 0.26 | 82 | 1009.2 |
| 20260506204004 | 65 | 200 | 2.0 | 8.0 | 0.00 | 0.28 | 0.26 | 82 | 1009.0 |
| 20260506203504 | 65 | 319 | 1.0 | 5.0 | 0.00 | 0.28 | 0.26 | 83 | 1009.0 |
| 20260506203004 | 65 | 347 | 2.0 | 8.0 | 0.00 | 0.28 | 0.26 | 83 | 1008.9 |
| 20260506202505 | 65 | 154 | 2.0 | 6.0 | 0.00 | 0.28 | 0.26 | 82 | 1008.9 |
| 20260506201504 | 64 | 229 | 2.0 | 7.0 | 0.00 | 0.28 | 0.26 | 86 | 1008.9 |
| 20260506200504 | 63 | 222 | 1.0 | 3.0 | 0.00 | 0.28 | 0.26 | 86 | 1009.1 |
| 20260506200004 | 63 | 221 | 1.0 | 6.0 | 0.00 | 0.28 | 0.26 | 87 | 1009.1 |
| 20260506195504 | 63 | 220 | 2.0 | 7.0 | 0.00 | 0.28 | 0.26 | 87 | 1009.2 |
| 20260506195004 | 63 | 192 | 1.0 | 7.0 | 0.00 | 0.28 | 0.26 | 87 | 1009.2 |
| 20260506194504 | 63 | 155 | 3.0 | 7.0 | 0.00 | 0.28 | 0.26 | 86 | 1009.2 |
| 20260506194004 | 63 | 184 | 1.0 | 10.0 | 0.00 | 0.28 | 0.26 | 87 | 1009.2 |
| 20260506193504 | 63 | 214 | 3.0 | 8.0 | 0.00 | 0.28 | 0.26 | 87 | 1009.2 |
| 20260506193004 | 62 | 183 | 2.0 | 8.0 | 0.00 | 0.28 | 0.26 | 88 | 1009.2 |
| 20260506192504 | 62 | 196 | 3.0 | 8.0 | 0.00 | 0.28 | 0.26 | 88 | 1009.2 |
| 20260506192004 | 62 | 226 | 2.0 | 6.0 | 0.00 | 0.28 | 0.26 | 88 | 1009.3 |
| 20260506191004 | 62 | 192 | 1.0 | 3.0 | 0.00 | 0.28 | 0.26 | 90 | 1009.6 |
| 20260506190505 | 62 | 281 | 2.0 | 6.0 | 0.00 | 0.28 | 0.26 | 90 | 1009.6 |
| 20260506190005 | 61 | 312 | 2.0 | 7.0 | 0.00 | 0.28 | 0.26 | 90 | 1009.6 |
| 20260506185504 | 61 | 208 | 2.0 | 7.0 | 0.00 | 0.28 | 0.26 | 90 | 1009.6 |
| 20260506185004 | 61 | 250 | 2.0 | 6.0 | 0.00 | 0.28 | 0.26 | 90 | 1009.6 |
| 20260506184504 | 61 | 219 | 1.0 | 9.0 | 0.00 | 0.28 | 0.26 | 91 | 1009.7 |
| 20260506184004 | 61 | 211 | 3.0 | 5.0 | 0.00 | 0.28 | 0.26 | 91 | 1009.9 |
| 20260506183504 | 61 | 173 | 2.0 | 6.0 | 0.00 | 0.28 | 0.26 | 91 | 1009.9 |
| 20260506183005 | 61 | 204 | 5.0 | 10.0 | 0.00 | 0.28 | 0.26 | 91 | 1009.9 |
| 20260506182504 | 61 | 218 | 3.0 | 6.0 | 0.00 | 0.28 | 0.26 | 92 | 1009.9 |
| 20260506181004 | 61 | 219 | 3.0 | 6.0 | 0.00 | 0.28 | 0.26 | 90 | 1009.9 |
| 20260506180504 | 61 | 190 | 2.0 | 6.0 | 0.00 | 0.28 | 0.26 | 90 | 1009.9 |
| 20260506180005 | 61 | 230 | 2.0 | 5.0 | 0.00 | 0.28 | 0.26 | 90 | 1009.9 |
| 20260506175004 | 61 | 185 | 3.0 | 8.0 | 0.01 | 0.28 | 0.26 | 90 | 1010.0 |
| 20260506174504 | 61 | 210 | 3.0 | 7.0 | 0.01 | 0.28 | 0.26 | 90 | 1010.0 |
| 20260506174004 | 61 | 189 | 5.0 | 10.0 | 0.01 | 0.28 | 0.26 | 90 | 1010.0 |
| 20260506173004 | 61 | 201 | 5.0 | 9.0 | 0.01 | 0.28 | 0.26 | 90 | 1009.9 |
| 20260506172504 | 61 | 194 | 3.0 | 9.0 | 0.03 | 0.28 | 0.26 | 90 | 1009.9 |
| 20260506172004 | 61 | 178 | 1.0 | 6.0 | 0.04 | 0.28 | 0.26 | 91 | 1010.1 |
| 20260506171504 | 61 | 208 | 4.0 | 9.0 | 0.04 | 0.28 | 0.26 | 92 | 1010.2 |
| 20260506171004 | 61 | 196 | 3.0 | 9.0 | 0.04 | 0.28 | 0.26 | 92 | 1010.2 |
| 20260506170004 | 61 | 180 | 4.0 | 8.0 | 0.04 | 0.28 | 0.26 | 92 | 1010.1 |
| 20260506165504 | 61 | 205 | 5.0 | 12.0 | 0.05 | 0.28 | 0.26 | 92 | 1010.2 |
| 20260506165005 | 61 | 207 | 5.0 | 10.0 | 0.05 | 0.27 | 0.25 | 92 | 1010.1 |
| 20260506164004 | 61 | 205 | 6.0 | 12.0 | 0.08 | 0.27 | 0.25 | 92 | 1010.1 |
| 20260506163004 | 60 | 206 | 4.0 | 12.0 | 0.08 | 0.26 | 0.24 | 93 | 1010.3 |
| 20260506162504 | 60 | 213 | 6.0 | 9.0 | 0.07 | 0.25 | 0.23 | 93 | 1010.1 |
| 20260506161504 | 60 | 221 | 6.0 | 10.0 | 0.10 | 0.24 | 0.22 | 93 | 1010.4 |
| 20260506161004 | 60 | 210 | 6.0 | 13.0 | 0.12 | 0.24 | 0.22 | 93 | 1010.8 |
| 20260506160504 | 60 | 184 | 4.0 | 8.0 | 0.13 | 0.24 | 0.22 | 93 | 1011.1 |
| 20260506160004 | 60 | 199 | 5.0 | 9.0 | 0.14 | 0.23 | 0.22 | 93 | 1011.2 |
| 20260506155504 | 60 | 209 | 5.0 | 9.0 | 0.14 | 0.23 | 0.21 | 92 | 1011.3 |
| 20260506154504 | 60 | 191 | 3.0 | 8.0 | 0.12 | 0.20 | 0.18 | 92 | 1011.5 |
| 20260506154004 | 60 | 203 | 3.0 | 8.0 | 0.11 | 0.19 | 0.17 | 91 | 1011.5 |
| 20260506153504 | 60 | 210 | 3.0 | 7.0 | 0.12 | 0.18 | 0.17 | 91 | 1011.5 |
| 20260506153005 | 61 | 223 | 1.0 | 5.0 | 0.12 | 0.17 | 0.16 | 90 | 1011.4 |
| 20260506152004 | 61 | 278 | 2.0 | 9.0 | 0.13 | 0.15 | 0.15 | 88 | 1011.4 |
| 20260506151504 | 61 | 205 | 3.0 | 8.0 | 0.11 | 0.12 | 0.12 | 88 | 1011.4 |
| 20260506151004 | 62 | 154 | 1.0 | 8.0 | 0.09 | 0.10 | 0.10 | 87 | 1011.5 |
| 20260506150004 | 62 | 206 | 1.0 | 7.0 | 0.07 | 0.08 | 0.08 | 87 | 1011.5 |
| 20260506145504 | 62 | 205 | 2.0 | 7.0 | 0.06 | 0.07 | 0.07 | 87 | 1011.5 |
| 20260506145004 | 62 | 223 | 3.0 | 6.0 | 0.06 | 0.07 | 0.07 | 87 | 1011.4 |
| 20260506144504 | 62 | 213 | 1.0 | 3.0 | 0.06 | 0.06 | 0.06 | 86 | 1011.2 |
| 20260506144004 | 62 | 190 | 2.0 | 6.0 | 0.05 | 0.06 | 0.06 | 85 | 1011.4 |
| 20260506143504 | 63 | 228 | 3.0 | 10.0 | 0.05 | 0.05 | 0.05 | 83 | 1011.4 |
| 20260506143005 | 63 | 219 | 3.0 | 9.0 | 0.04 | 0.04 | 0.04 | 81 | 1011.5 |
| 20260506142504 | 63 | 204 | 2.0 | 7.0 | 0.02 | 0.03 | 0.03 | 80 | 1011.6 |
| 20260506142004 | 64 | 203 | 2.0 | 9.0 | 0.01 | 0.02 | 0.02 | 78 | 1011.5 |
| 20260506141504 | 64 | 194 | 1.0 | 9.0 | 0.01 | 0.01 | 0.01 | 78 | 1011.6 |
| 20260506141004 | 64 | 185 | 2.0 | 6.0 | 0.01 | 0.01 | 0.01 | 77 | 1011.5 |
| 20260506140504 | 65 | 274 | 2.0 | 5.0 | 0.01 | 0.01 | 0.01 | 76 | 1011.4 |
| 20260506140004 | 65 | 233 | 2.0 | 10.0 | 0.01 | 0.01 | 0.01 | 75 | 1011.3 |
| 20260506135504 | 65 | 211 | 4.0 | 8.0 | 0.01 | 0.01 | 0.01 | 74 | 1011.1 |
| 20260506135004 | 65 | 223 | 2.0 | 12.0 | 0.01 | 0.01 | 0.01 | 74 | 1011.1 |
| 20260506134504 | 65 | 201 | 3.0 | 10.0 | 0.01 | 0.01 | 0.01 | 74 | 1011.1 |
| 20260506134004 | 65 | 204 | 4.0 | 10.0 | 0.01 | 0.01 | 0.01 | 74 | 1011.1 |
| 20260506133504 | 65 | 273 | 4.0 | 8.0 | 0.01 | 0.01 | 0.01 | 74 | 1011.2 |
| 20260506133005 | 65 | 211 | 3.0 | 13.0 | 0.01 | 0.01 | 0.01 | 75 | 1011.2 |
| 20260506131504 | 65 | 222 | 3.0 | 9.0 | 0.00 | 0.00 | 0.00 | 74 | 1011.3 |
| 20260506131004 | 65 | 234 | 5.0 | 10.0 | 0.00 | 0.00 | 0.00 | 73 | 1011.3 |
| 20260506130504 | 65 | 233 | 3.0 | 8.0 | 0.00 | 0.00 | 0.00 | 73 | 1011.5 |
| 20260506130005 | 65 | 191 | 3.0 | 9.0 | 0.00 | 0.00 | 0.00 | 74 | 1011.5 |
| 20260506125004 | 65 | 206 | 4.0 | 7.0 | 0.00 | 0.00 | 0.00 | 72 | 1011.6 |
| 20260506124504 | 65 | 191 | 2.0 | 8.0 | 0.00 | 0.00 | 0.00 | 72 | 1011.5 |
| 20260506124004 | 65 | 218 | 5.0 | 17.0 | 0.00 | 0.00 | 0.00 | 72 | 1011.4 |
| 20260506123504 | 65 | 210 | 4.0 | 12.0 | 0.00 | 0.00 | 0.00 | 72 | 1011.1 |
| 20260506122504 | 65 | 192 | 5.0 | 14.0 | 0.00 | 0.00 | 0.00 | 72 | 1011.3 |
| 20260506122004 | 65 | 214 | 4.0 | 9.0 | 0.00 | 0.00 | 0.00 | 73 | 1011.2 |
| 20260506121504 | 64 | 173 | 3.0 | 9.0 | 0.00 | 0.00 | 0.00 | 74 | 1011.3 |
| 20260506121004 | 64 | 199 | 5.0 | 9.0 | 0.00 | 0.00 | 0.00 | 73 | 1011.1 |
| 20260506120005 | 64 | 209 | 5.0 | 9.0 | 0.00 | 0.00 | 0.00 | 74 | 1011.1 |
| 20260506115506 | 64 | 197 | 6.0 | 12.0 | 0.00 | 0.00 | 0.00 | 74 | 1011.1 |
| 20260506115004 | 64 | 215 | 5.0 | 13.0 | 0.00 | 0.00 | 0.00 | 75 | 1011.0 |
| 20260506114504 | 64 | 213 | 5.0 | 10.0 | 0.00 | 0.00 | 0.00 | 75 | 1011.1 |
| 20260506114005 | 64 | 213 | 5.0 | 14.0 | 0.00 | 0.00 | 0.00 | 75 | 1011.0 |
| 20260506113504 | 64 | 208 | 4.0 | 9.0 | 0.00 | 0.00 | 0.00 | 76 | 1011.1 |
| 20260506113005 | 64 | 206 | 6.0 | 10.0 | 0.00 | 0.00 | 0.00 | 75 | 1011.0 |
| 20260506112504 | 64 | 192 | 5.0 | 13.0 | 0.00 | 0.00 | 0.00 | 75 | 1011.0 |
| 20260506112004 | 64 | 210 | 5.0 | 10.0 | 0.00 | 0.00 | 0.00 | 76 | 1010.9 |
| 20260506111504 | 64 | 214 | 6.0 | 10.0 | 0.00 | 0.00 | 0.00 | 76 | 1011.1 |
| 20260506111004 | 64 | 201 | 6.0 | 12.0 | 0.00 | 0.00 | 0.00 | 76 | 1011.1 |
| 20260506110004 | 64 | 202 | 6.0 | 9.0 | 0.00 | 0.00 | 0.00 | 76 | 1010.9 |
| 20260506105504 | 63 | 206 | 6.0 | 10.0 | 0.00 | 0.00 | 0.00 | 76 | 1010.9 |
| 20260506105004 | 63 | 199 | 6.0 | 12.0 | 0.00 | 0.00 | 0.00 | 76 | 1011.0 |
| 20260506104004 | 63 | 211 | 2.0 | 10.0 | 0.00 | 0.00 | 0.00 | 77 | 1010.9 |
| 20260506103004 | 63 | 215 | 5.0 | 14.0 | 0.00 | 0.00 | 0.00 | 76 | 1010.9 |
| 20260506102503 | 63 | 220 | 5.0 | 10.0 | 0.00 | 0.00 | 0.00 | 77 | 1010.9 |
| 20260506102004 | 64 | 201 | 7.0 | 13.0 | 0.00 | 0.00 | 0.00 | 76 | 1010.7 |
| 20260506101504 | 64 | 210 | 7.0 | 12.0 | 0.00 | 0.00 | 0.00 | 76 | 1010.8 |
| 20260506100504 | 64 | 201 | 6.0 | 12.0 | 0.00 | 0.00 | 0.00 | 76 | 1010.7 |
| 20260506100005 | 64 | 207 | 5.0 | 9.0 | 0.00 | 0.00 | 0.00 | 76 | 1010.9 |
| 20260506095504 | 64 | 206 | 3.0 | 8.0 | 0.00 | 0.00 | 0.00 | 76 | 1010.9 |
| 20260506094504 | 64 | 205 | 5.0 | 13.0 | 0.00 | 0.00 | 0.00 | 76 | 1010.8 |
| 20260506094004 | 64 | 214 | 5.0 | 9.0 | 0.00 | 0.00 | 0.00 | 76 | 1010.8 |
| 20260506093504 | 64 | 216 | 5.0 | 9.0 | 0.00 | 0.00 | 0.00 | 76 | 1010.8 |
| 20260506093004 | 64 | 213 | 5.0 | 9.0 | 0.00 | 0.00 | 0.00 | 75 | 1010.8 |
| 20260506092504 | 64 | 162 | 5.0 | 12.0 | 0.00 | 0.00 | 0.00 | 75 | 1010.7 |
| 20260506092004 | 64 | 213 | 5.0 | 9.0 | 0.00 | 0.00 | 0.00 | 75 | 1010.7 |
| 20260506091503 | 64 | 203 | 3.0 | 10.0 | 0.00 | 0.00 | 0.00 | 75 | 1010.8 |
| 20260506091004 | 65 | 211 | 4.0 | 12.0 | 0.00 | 0.00 | 0.00 | 74 | 1010.7 |
| 20260506090504 | 65 | 215 | 4.0 | 9.0 | 0.00 | 0.00 | 0.00 | 74 | 1010.8 |
| 20260506085504 | 65 | 221 | 5.0 | 9.0 | 0.00 | 0.00 | 0.00 | 73 | 1010.9 |
| 20260506085004 | 65 | 208 | 5.0 | 12.0 | 0.00 | 0.00 | 0.00 | 72 | 1010.9 |
| 20260506084504 | 65 | 185 | 3.0 | 8.0 | 0.00 | 0.00 | 0.00 | 72 | 1010.9 |
| 20260506083504 | 66 | 209 | 4.0 | 10.0 | 0.00 | 0.00 | 0.00 | 71 | 1010.8 |
| 20260506082004 | 66 | 187 | 5.0 | 9.0 | 0.00 | 0.00 | 0.00 | 70 | 1010.9 |
| 20260506081504 | 66 | 200 | 5.0 | 9.0 | 0.00 | 0.00 | 0.00 | 70 | 1010.9 |
| 20260506081004 | 66 | 205 | 5.0 | 14.0 | 0.00 | 0.00 | 0.00 | 70 | 1011.0 |
| 20260506080504 | 66 | 192 | 6.0 | 14.0 | 0.00 | 0.00 | 0.00 | 70 | 1010.9 |
| 20260506073505 | 66 | 188 | 4.0 | 8.0 | 0.00 | 0.00 | 0.00 | 70 | 1011.1 |
| 20260506073004 | 66 | 182 | 5.0 | 10.0 | 0.00 | 0.00 | 0.00 | 69 | 1011.1 |
| 20260506072504 | 66 | 202 | 3.0 | 7.0 | 0.00 | 0.00 | 0.00 | 70 | 1011.2 |
| 20260506072004 | 66 | 221 | 4.0 | 9.0 | 0.00 | 0.00 | 0.00 | 69 | 1011.3 |
| 20260506071504 | 66 | 200 | 3.0 | 9.0 | 0.00 | 0.00 | 0.00 | 69 | 1011.3 |
| 20260506071004 | 67 | 207 | 5.0 | 9.0 | 0.00 | 0.00 | 0.00 | 68 | 1011.3 |
| 20260506070505 | 66 | 208 | 6.0 | 13.0 | 0.00 | 0.00 | 0.00 | 68 | 1011.3 |
| 20260506062503 | 67 | 203 | 6.0 | 12.0 | 0.00 | 0.00 | 0.00 | 66 | 1011.7 |
| 20260506062004 | 67 | 212 | 2.0 | 7.0 | 0.00 | 0.00 | 0.00 | 66 | 1011.7 |
| 20260506061504 | 67 | 186 | 6.0 | 9.0 | 0.00 | 0.00 | 0.00 | 66 | 1011.7 |
| 20260506061004 | 67 | 199 | 4.0 | 8.0 | 0.00 | 0.00 | 0.00 | 66 | 1011.7 |
| 20260506060504 | 67 | 182 | 2.0 | 7.0 | 0.00 | 0.00 | 0.00 | 67 | 1011.7 |
| 20260506051004 | 67 | 217 | 2.0 | 8.0 | 0.00 | 0.00 | 0.00 | 65 | 1012.1 |
| 20260506050504 | 67 | 213 | 3.0 | 8.0 | 0.00 | 0.00 | 0.00 | 65 | 1012.1 |
| 20260506045003 | 67 | 206 | 6.0 | 10.0 | 0.00 | 0.00 | 0.00 | 63 | 1012.2 |
| 20260506044504 | 67 | 188 | 3.0 | 10.0 | 0.00 | 0.00 | 0.00 | 64 | 1012.2 |
| 20260506044004 | 67 | 209 | 4.0 | 8.0 | 0.00 | 0.00 | 0.00 | 63 | 1012.2 |
| 20260506043505 | 67 | 210 | 5.0 | 10.0 | 0.00 | 0.00 | 0.00 | 62 | 1012.2 |
| 20260506043004 | 67 | 212 | 4.0 | 9.0 | 0.00 | 0.00 | 0.00 | 62 | 1012.1 |
| 20260506042504 | 67 | 221 | 3.0 | 7.0 | 0.00 | 0.00 | 0.00 | 62 | 1012.2 |
| 20260506042004 | 67 | 219 | 6.0 | 12.0 | 0.00 | 0.00 | 0.00 | 61 | 1012.1 |
| 20260506041004 | 67 | 195 | 3.0 | 9.0 | 0.00 | 0.00 | 0.00 | 62 | 1012.1 |
| 20260506040005 | 67 | 203 | 4.0 | 9.0 | 0.00 | 0.00 | 0.00 | 61 | 1012.1 |
| 20260506035504 | 68 | 211 | 5.0 | 13.0 | 0.00 | 0.00 | 0.00 | 60 | 1012.1 |
| 20260506035004 | 68 | 217 | 4.0 | 9.0 | 0.00 | 0.00 | 0.00 | 61 | 1012.1 |
| 20260506034504 | 68 | 190 | 5.0 | 9.0 | 0.00 | 0.00 | 0.00 | 61 | 1012.1 |
| 20260506033504 | 68 | 216 | 5.0 | 8.0 | 0.00 | 0.00 | 0.00 | 60 | 1012.0 |
| 20260506033004 | 68 | 196 | 6.0 | 15.0 | 0.00 | 0.00 | 0.00 | 60 | 1012.0 |
| 20260506032504 | 68 | 189 | 5.0 | 9.0 | 0.00 | 0.00 | 0.00 | 60 | 1012.0 |
| 20260506032004 | 68 | 191 | 6.0 | 12.0 | 0.00 | 0.00 | 0.00 | 59 | 1012.0 |
| 20260506031504 | 68 | 194 | 5.0 | 9.0 | 0.00 | 0.00 | 0.00 | 59 | 1012.0 |
| 20260506031004 | 68 | 205 | 5.0 | 9.0 | 0.00 | 0.00 | 0.00 | 59 | 1012.1 |
| 20260506030504 | 69 | 192 | 4.0 | 9.0 | 0.00 | 0.00 | 0.00 | 58 | 1012.1 |
| 20260506030004 | 69 | 204 | 3.0 | 9.0 | 0.00 | 0.00 | 0.00 | 57 | 1012.0 |
| 20260506025504 | 69 | 209 | 4.0 | 9.0 | 0.00 | 0.00 | 0.00 | 56 | 1012.1 |
| 20260506025004 | 70 | 201 | 5.0 | 9.0 | 0.00 | 0.00 | 0.00 | 55 | 1012.1 |
| 20260506024504 | 70 | 208 | 4.0 | 10.0 | 0.00 | 0.00 | 0.00 | 54 | 1012.1 |
| 20260506024005 | 70 | 201 | 3.0 | 10.0 | 0.00 | 0.00 | 0.00 | 53 | 1012.1 |
| 20260506023504 | 71 | 220 | 5.0 | 10.0 | 0.00 | 0.00 | 0.00 | 52 | 1012.2 |
| 20260506023004 | 71 | 200 | 4.0 | 9.0 | 0.00 | 0.00 | 0.00 | 52 | 1012.1 |
| 20260506022004 | 71 | 199 | 6.0 | 12.0 | 0.00 | 0.00 | 0.00 | 51 | 1012.1 |
| 20260506021504 | 71 | 194 | 7.0 | 13.0 | 0.00 | 0.00 | 0.00 | 50 | 1012.0 |
| 20260506021004 | 71 | 190 | 6.0 | 10.0 | 0.00 | 0.00 | 0.00 | 50 | 1012.1 |
| 20260506020504 | 72 | 210 | 7.0 | 12.0 | 0.00 | 0.00 | 0.00 | 49 | 1012.1 |
| 20260506015504 | 72 | 187 | 5.0 | 12.0 | 0.00 | 0.00 | 0.00 | 49 | 1012.0 |
| 20260506015004 | 72 | 208 | 5.0 | 12.0 | 0.00 | 0.00 | 0.00 | 48 | 1012.0 |
| 20260506014504 | 72 | 203 | 5.0 | 12.0 | 0.00 | 0.00 | 0.00 | 48 | 1012.0 |
| 20260506014004 | 72 | 198 | 6.0 | 10.0 | 0.00 | 0.00 | 0.00 | 47 | 1011.8 |
| 20260506013504 | 72 | 185 | 5.0 | 10.0 | 0.00 | 0.00 | 0.00 | 47 | 1011.7 |
| 20260506012504 | 73 | 209 | 6.0 | 13.0 | 0.00 | 0.00 | 0.00 | 46 | 1011.7 |
| 20260506012004 | 73 | 193 | 5.0 | 12.0 | 0.00 | 0.00 | 0.00 | 45 | 1011.6 |
| 20260506011504 | 73 | 194 | 6.0 | 14.0 | 0.00 | 0.00 | 0.00 | 45 | 1011.6 |
| 20260506011003 | 73 | 205 | 6.0 | 14.0 | 0.00 | 0.00 | 0.00 | 44 | 1011.6 |
| 20260506010504 | 73 | 214 | 4.0 | 9.0 | 0.00 | 0.00 | 0.00 | 44 | 1011.6 |
| 20260506010004 | 74 | 178 | 5.0 | 12.0 | 0.00 | 0.00 | 0.00 | 44 | 1011.5 |
| 20260506005504 | 74 | 198 | 6.0 | 14.0 | 0.00 | 0.00 | 0.00 | 43 | 1011.5 |
| 20260506005004 | 74 | 187 | 6.0 | 10.0 | 0.00 | 0.00 | 0.00 | 43 | 1011.4 |
| 20260506004504 | 74 | 206 | 4.0 | 12.0 | 0.00 | 0.00 | 0.00 | 44 | 1011.4 |
| 20260506004004 | 74 | 210 | 4.0 | 8.0 | 0.00 | 0.00 | 0.00 | 44 | 1011.4 |
| 20260506003504 | 74 | 212 | 5.0 | 9.0 | 0.00 | 0.00 | 0.00 | 43 | 1011.4 |
| 20260506003005 | 75 | 210 | 6.0 | 9.0 | 0.00 | 0.00 | 0.00 | 43 | 1011.3 |
| 20260506002504 | 75 | 191 | 4.0 | 13.0 | 0.00 | 0.00 | 0.00 | 43 | 1011.2 |
| 20260506002004 | 75 | 199 | 6.0 | 10.0 | 0.00 | 0.00 | 0.00 | 43 | 1011.1 |
| 20260506001504 | 75 | 205 | 3.0 | 8.0 | 0.00 | 0.00 | 0.00 | 44 | 1011.1 |
| 20260506001005 | 75 | 191 | 5.0 | 9.0 | 0.00 | 0.00 | 0.00 | 44 | 1011.1 |
| 20260506000504 | 76 | 214 | 3.0 | 12.0 | 0.00 | 0.00 | 0.00 | 43 | 1011.1 |
| 20260506000004 | 76 | 205 | 3.0 | 9.0 | 0.00 | 0.00 | 0.00 | 42 | 1011.0 |
| 20260505235004 | 76 | 207 | 5.0 | 9.0 | 0.00 | 0.00 | 0.00 | 38 | 1010.8 |
| 20260505234504 | 76 | 195 | 5.0 | 9.0 | 0.00 | 0.00 | 0.00 | 38 | 1010.8 |
| 20260505233504 | 76 | 209 | 3.0 | 9.0 | 0.00 | 0.00 | 0.00 | 40 | 1010.7 |
| 20260505233004 | 76 | 176 | 3.0 | 7.0 | 0.00 | 0.00 | 0.00 | 40 | 1010.8 |
| 20260505232504 | 76 | 204 | 2.0 | 7.0 | 0.00 | 0.00 | 0.00 | 41 | 1010.8 |
| 20260505232004 | 77 | 172 | 3.0 | 8.0 | 0.00 | 0.00 | 0.00 | 39 | 1010.8 |